Flag Weather past 2 weeks in Santa Clarita, California, U.S.A.

Now
67 °F

Clear.


Feels Like: 67 °F
Forecast: 54 / 71 °F
Wind: No wind

Location: Van Nuys Airport

Current Time: Oct 30, 2014 at 9:56:14 PM

Latest Report: Oct 30, 2014 at 8:51 PM


Visibility: 10 mi

Pressure: 29.93 "Hg

Humidity: 61%

Dew point: 53 °F

Location of Santa ClaritaLocation

Historic Weather in Santa Clarita — Graph

°F

Santa Clarita temperature yesterday

Maximum temperature yesterday: 89 °F (at 1:51 PM)
Minimum temperature yesterday: 55 °F (at 6:51 AM)
Average temperature yesterday: 71 °F

Past Weeks' High & Low Weather Summary

 TemperatureHumidityPressure
High89 °F (Oct 22, 2:51 PM)96% (Oct 21, 7:51 AM)30.03 "Hg (Oct 21, 7:51 AM)
Low54 °F (Oct 28, 6:51 AM)8% (Oct 24, 1:51 PM)29.80 "Hg (Oct 18, 4:51 PM)
Average68 °F54%29.92 "Hg
* Reported Oct 15 7:51 PM — Oct 30 7:51 PM, Santa Clarita, Weather by CustomWeather, © 2014

Note: Actual official high and low records may vary slightly from our data, if they occured in-between our weather recording intervals... More about our weather records

Advertising

Santa Clarita weather history for previous 24 hours

 ConditionsComfort  
Time TempWeatherWind HumidityBarometerVisibility
7:51 PM
Oct 30
70 °FClear.5 mph57%29.93 "Hg10 mi
6:51 PM72 °FPartly sunny.3 mph40%29.93 "Hg10 mi
5:51 PM73 °FSunny.No wind57%29.91 "Hg10 mi
4:51 PM77 °FSunny.5 mph37%29.90 "Hg10 mi
3:51 PM78 °FSunny.7 mph40%29.90 "Hg10 mi
2:51 PM82 °FSunny.8 mph27%29.90 "Hg10 mi
1:51 PM81 °FSunny.13 mph34%29.91 "Hg10 mi
12:51 PM83 °FSunny.7 mph24%29.93 "Hg10 mi
11:51 AM81 °FSunny.3 mph23%29.96 "Hg10 mi
10:51 AM75 °FSunny.No wind33%29.97 "Hg10 mi
9:51 AM68 °FSunny.No wind51%29.98 "Hg10 mi
8:51 AM63 °FSunny.No wind58%29.98 "Hg10 mi
7:51 AM57 °FPassing clouds.3 mph67%29.97 "Hg10 mi
6:51 AM57 °FPassing clouds.No wind69%29.96 "Hg10 mi
5:51 AM58 °FClear.No wind67%29.96 "Hg10 mi
4:51 AM59 °FClear.No wind64%29.96 "Hg10 mi
3:51 AM60 °FClear.No wind62%29.96 "Hg10 mi
2:51 AM61 °FClear.3 mph65%29.96 "Hg10 mi
1:51 AM63 °FClear.No wind68%29.97 "Hg10 mi
12:51 AM62 °FClear.5 mph60%29.98 "Hg10 mi
11:51 PM
Oct 29
66 °FClear.No wind50%29.97 "Hg10 mi
10:51 PM68 °FClear.6 mph35%29.97 "Hg10 mi
9:51 PM69 °FClear.3 mph32%29.96 "Hg10 mi
Weather by CustomWeather, © 2014

See weather overviewHow to use our weather pages